Location: Broekland
(52.3610°N, 6.2005°E)
Time: 06:50:05
(UTC+00:00)

NOSS 3-1 (A) - Pass Details

Date: 19 May 2025
Orbit: 639 x 1568 km, 63.4° (Epoch: 20 June)

Event Time Altitude Azimuth Distance (km) Brightness Sun altitude
Exits shadow 20:50:24 11° 162° (SSE) 2,105 4.7 -9.6°
Maximum altitude 20:53:58 23° 113° (ESE) 1,596 4.2 -10.0°
Drops below altitude 10° 20:58:13 10° 63° (ENE) 2,484 5.6 -10.3°
Sets 21:01:26 0° 50° (NE) 3,590 6.5 -10.6°
